Regional Weather Roundup
Issued by NWS Upton, NY

Current Version | Previous Version | Text Only | Print | Product List | Glossary On
Versions: 1 2 3 4 5 6 7 8 9 10 11 12 13 14 15 16 17 18 19 20 21 22 23 24 25 26 27 28 29 30 31 32 33 34 35 36 37 38 39 40 41 42 43 44 45 46 47 48 49 50
000
ASUS41 KOKX 061304
RWROKX

REGIONAL WEATHER ROUNDUP
NATIONAL WEATHER SERVICE NEW YORK NY
800 AM EST SAT FEB 06 2016

NOTE: "FAIR" INDICATES FEW OR NO CLOUDS BELOW 12,000 FEET WITH NO
SIGNIFICANT WEATHER AND/OR OBSTRUCTIONS TO VISIBILITY.

NYZ071-072-176-178-NJZ106-104-061400-
NEW YORK CITY METRO AREA


CITY           SKY/WX    TMP DP  RH WIND       PRES   REMARKS
CENTRAL PARK   PTCLDY    31  17  56 W5        30.44R WCI  26
LAGUARDIA APRT PTCLDY    34  18  52 W9        30.42R WCI  27
KENNEDY INTL   CLOUDY    30  19  63 W7        30.44R WCI  23
NEWARK/LIBERTY MOCLDY    28  19  69 CALM      30.44R
BRNX BOT. GARD   N/A     32  19  59 W8        30.42F WCI  25
TETERBORO      CLEAR     28  18  66 CALM      30.42R
$$

NYZ177-179-078>081-061400-
LONG ISLAND NEW YORK

CITY           SKY/WX    TMP DP  RH WIND       PRES   REMARKS
FARMINGDALE    CLOUDY    24  19  81 W5        30.42R WCI  18
ISLIP          CLOUDY    19  18  95 CALM      30.40R
SHIRLEY        CLOUDY    19  17  92 CALM      30.43R
RIVERHEAD        N/A     25  18  74 W1        30.44R
WESTHAMPTON      N/A    N/A N/A N/A MISG      30.42S
EAST HAMPTON   FAIR      17  15  93 CALM      30.40S
MONTAUK POINT    N/A     32  20  61 NW5       30.42R WCI  27
$$

NYZ052-065-067-061400-
HUDSON VALLEY

CITY           SKY/WX    TMP DP  RH WIND       PRES   REMARKS
WHITE PLAINS   PTCLDY    27  17  66 W6        30.38R WCI  20
NEWBURGH       CLEAR     25  19  80 W7        30.39R WCI  17
MONTGOMERY     CLOUDY    24  18  77 SW6       30.39R WCI  17
POUGHKEEPSIE   CLOUDY    27  19  72 CALM      30.40R
ALBANY         MOCLDY    25  16  68 S7        30.35R WCI  17
$$

NJZ001-105-106-008-010-013-015-019>022-104-061400-
NEW JERSEY

CITY           SKY/WX    TMP DP  RH WIND       PRES   REMARKS
NEWARK/LIBERTY MOCLDY    28  19  69 CALM      30.44R
TETERBORO      CLEAR     28  18  66 CALM      30.42R
CALDWELL       PTCLDY    24  19  81 CALM      30.43R
MORRISTOWN     MOCLDY    21  21 100 CALM      30.43R
SOMERVILLE     CLOUDY    20  17  88 CALM      30.41S
SUSSEX         PTCLDY    21  19  92 CALM      30.38S
ANDOVER          N/A     22  19  89 CALM      30.39S
TRENTON        CLOUDY    22  18  85 CALM      30.42R
MILLVILLE      PTCLDY    24  22  91 CALM      30.45R
ATLANTIC CITY  PTCLDY    25  21  85 CALM      30.45R
WRIGHTSTOWN    CLOUDY    21  21 100 S2        30.41R
TOMS RIVER     PTCLDY    19  16  86 CALM      30.45R
BELMAR         MOCLDY    25  12  58 W5        30.43R WCI  19
$$

PAZ047>061-062-071-061400-
EASTERN PENNSYLVANIA

CITY           SKY/WX    TMP DP  RH WIND       PRES   REMARKS
PHILADELPHIA   MOCLDY    30  23  75 SW3       30.45R
ALLENTOWN      CLOUDY    23  18  81 CALM      30.41R
SCRANTON       CLOUDY    24  17  74 NE3       30.36R
$$

CTZ002-004>006-009-010-012-RIZ004-006-007-MAZ004-011-015-061400-
SOUTHERN NEW ENGLAND
 IN CT

CITY           SKY/WX    TMP DP  RH WIND       PRES   REMARKS
BRADLEY INTL   CLOUDY    19  15  84 CALM      30.38R
HARTFORD       CLOUDY    20  17  88 S3        30.41R
DANBURY        CLOUDY    16  11  80 CALM      30.40R
WTRBRY/OXFORD  CLEAR    N/A N/A N/A CALM      30.37R
BRIDGEPORT     CLOUDY    22  18  85 CALM      30.42R
MERIDEN        CLOUDY    15  12  88 CALM      30.41R FOG
NEW HAVEN      CLOUDY    19  19 100 CALM      30.41R
CHESTER        FAIR      27  18  69 W3        30.39R
GROTON         SUNNY     20  19  96 N3        30.41R
WILLIMANTIC    CLOUDY    13  11  92 CALM      30.40R

 IN RI

CITY           SKY/WX    TMP DP  RH WIND       PRES   REMARKS
PROVIDENCE     CLOUDY    22  16  78 W8        30.39S WCI  12
BLOCK ISLAND   SUNNY     28  19  69 NW5       30.39R WCI  23
WESTERLY       SUNNY     19  19 100 CALM      30.41R

 IN MA

CITY           SKY/WX    TMP DP  RH WIND       PRES   REMARKS
BOSTON         MOSUNNY   26  17  68 W7        30.36S WCI  18
WORCESTER        N/A    N/A N/A N/A MISG      30.31R
WESTFIELD      CLOUDY    12  11  95 S5        30.37R WCI   4
PROVINCETOWN   SUNNY     31  22  69 NW8       30.38R WCI  23
NANTUCKET      SUNNY     30  22  72 NW6       30.39R WCI  24
$$

ANZ330-335-338-340-345-350-353-355-061400-
COASTAL MARINE OBSERVATIONS


STATION/POSITION TIME  SKY/WX   TEMP    WIND        PRES    VSBY  WAVE
                                AIR SEA DIR/SP/G                  HT/PER
                 (UTC)          (F)     (DEG/KT/KT) (MB)    (MI)  (FT/S)
NY HARB ENTRANCE 1150            35 43  300/  4/  6 1029.5          2/11
4S FIRE IS       NOT AVBL
20S FIRE ISLAND  1150            35 45  350/  4/  6 1029.5          2/11
GREAT SOUTH BAY  NOT AVBL
23SW MTP         1150            33 46  330/ 12/ 16 1029.0          3/10
HUDSON CANYON    1150            38 51              1029.3          5/ 6
KINGS POINT      1200            30 38  200/  2/  4 1029.4
EXECUTION ROCKS  NOT AVBL
CENTRAL LI SOUND 1215            33     300/  4/  8   N/A           1
EASTERN LI SOUND 1200            31 41  290/  8/ 10   N/A
ROBBINS REEF     1200            30     260/  9/ 11 1029.4
$$


>>>>>>>>>>>>>>>>>>>>>>>>>>>> KEY <<<<<<<<<<<<<<<<<<<<<<<<<<<
>                                                          <
>     SKY/WX - SKY CONDITION/PRESENT WEATHER               <
>     TMP    - TEMPERATURE IN FAHRENHEIT                   <
>     DP     - DEWPOINT IN FAHRENHEIT                      <
>     RH     - RELATIVE HUMIDITY IN PERCENT                <
>     WIND   - DIRECTION AND SPEED IN MPH                  <
>     PRES   - MEAN SEA LEVEL PRESSURE IN INCHES OF HG     <
>     WCI    - WIND CHILL INDEX                            <
>     VSB    - VISIBILITY IN MILES                         <
>     HX     - HEAT INDEX                                  <
>     TC     - TEMPERATURE IN CELSIUS                      <
>     VRB    - VARIABLE WIND DIRECTION                     <
>                                                          <
>>>>>>>>>>>>>>>>>>>>>>>>>>>> KEY <<<<<<<<<<<<<<<<<<<<<<<<<<<





USA.gov is the U.S. government's official web portal to all federal, state and local government web resources and services.